Wind_Speed
8 8 8 8 8 8 8 8 9 9 8 8 8 8 8 8 8 8 8 7 6 7 7 8 8 8 8 8 6 5 5 5 4 4 4 4 3 3 3 3 2 2 2
9 8 8 8 8 8 8 8 8 8 8 8 8 7 7 7 7 6 6 6 6 6 6 6 7 7 7 7 7 6 5 5 4 4 4 4 3 3 3 3 2 1 1
9 9 8 8 8 8 8 8 8 8 8 8 8 7 7 7 7 6 6 5 6 5 5 5 6 6 6 6 6 6 6 5 5 4 4 3 3 3 3 2 2 1 2
9 8 9 8 8 8 8 8 8 8 8 8 8 8 7 6 6 5 5 5 5 4 5 5 5 6 7 6 6 6 6 5 4 4 3 3 3 3 3 3 2 2 2
9 9 9 8 8 8 8 8 8 8 8 8 8 7 7 6 5 5 5 4 4 3 4 4 5 7 7 6 6 5 5 5 4 2 2 3 3 4 4 4 3 2 2
9 9 9 9 8 8 8 8 8 8 7 7 7 7 7 6 5 4 4 3 3 3 3 4 5 6 6 6 5 5 5 4 3 2 2 2 3 4 4 4 4 3 3
9 10 10 9 8 8 7 7 7 7 7 7 6 6 6 5 4 4 3 3 2 3 3 3 4 5 5 5 5 5 5 5 3 3 3 2 2 3 4 5 5 4 4
9 9 9 9 8 7 7 7 6 6 6 6 5 5 5 4 4 3 3 2 1 1 2 3 3 4 5 5 5 5 5 5 4 3 3 3 3 4 4 5 5 5 4
9 8 8 8 8 7 6 6 5 5 5 5 5 4 4 3 2 2 2 1 1 0 1 2 2 3 4 5 5 5 5 5 5 5 4 4 3 3 3 4 5 5 5
9 8 8 7 7 7 6 6 5 5 4 4 4 4 3 2 2 1 1 1 0 0 0 1 2 2 3 4 4 5 5 5 5 6 6 4 3 3 3 3 4 4 5
9 9 8 7 7 7 6 6 5 5 4 4 4 4 3 3 2 2 2 1 1 1 1 1 1 2 3 4 6 6 7 7 7 7 6 6 6 5 4 4 4 5 5
9 9 8 8 7 6 6 6 6 5 4 3 3 4 3 3 2 2 2 2 1 2 1 1 2 3 4 5 6 7 7 8 8 8 8 8 7 7 6 6 6 6 5
9 8 8 8 7 7 7 6 6 6 5 3 3 4 4 3 2 2 1 2 2 2 2 2 2 3 4 5 6 7 8 8 9 9 8 8 8 8 7 7 7 7 7
8 8 7 7 7 7 6 6 6 6 5 4 2 2 3 3 2 1 0 1 1 1 2 2 3 3 4 5 6 7 9 9 9 9 9 9 9 9 9 8 8 8 8
8 7 7 6 7 7 6 6 6 5 5 5 4 3 3 3 3 2 2 2 2 2 3 3 4 5 6 6 6 7 8 9 9 9 10 10 10 10 10 10 10 9 9
7 7 7 6 6 6 5 5 5 5 5 5 5 4 4 4 4 3 2 3 2 3 4 5 5 6 7 7 7 7 8 9 10 10 10 10 10 10 11 11 11 11 10
7 6 6 6 6 6 6 5 5 5 5 5 6 5 4 4 4 4 3 4 3 4 5 5 6 6 6 6 6 7 8 9 10 10 11 11 11 12 12 12 12 12 12
6 6 6 6 6 6 6 5 5 6 6 6 6 6 6 5 5 4 3 3 5 5 5 5 6 5 5 5 6 7 8 8 9 11 11 12 12 13 13 13 13 13 13
6 6 6 5 5 5 5 5 5 5 6 6 6 7 7 6 6 5 4 4 5 5 6 6 6 5 5 5 6 6 8 8 8 10 11 12 13 13 14 14 15 15 15
5 5 5 6 6 5 6 6 6 6 6 6 7 8 7 7 6 5 5 5 5 6 6 6 6 6 6 6 6 6 6 7 8 10 11 12 12 13 14 15 15 16 17
5 6 6 7 7 7 7 7 6 6 6 7 7 9 7 7 7 6 6 6 6 6 7 7 7 7 6 6 6 6 6 7 8 9 11 11 12 13 14 15 16 17 17
6 7 7 7 8 8 8 8 7 7 7 7 7 8 7 7 7 8 7 7 7 7 8 8 8 8 7 7 7 8 8 8 9 9 10 11 11 12 13 14 15 16 17
7 7 8 9 9 9 9 9 9 8 8 8 8 8 8 8 9 10 8 8 8 9 9 9 9 9 9 9 9 9 10 10 10 10 11 12 12 13 14 14 15 16 17
8 8 8 8 9 9 10 11 11 10 10 9 9 10 9 9 10 10 9 9 10 10 11 11 11 11 11 11 11 11 12 12 12 12 13 13 14 14 14 15 16 17 18
10 10 10 10 10 10 11 11 11 11 11 11 11 11 11 10 11 10 10 11 11 12 12 12 13 13 12 13 13 13 13 13 13 13 14 14 15 15 16 17 17 18 18
10 11 11 11 11 11 11 11 12 12 12 12 13 13 12 12 12 12 12 13 13 14 14 14 15 14 14 14 14 14 14 14 15 15 15 16 16 16 17 18 19 19 19
Wind_Direction
97 96 99 102 99 98 98 97 106 118 126 129 128 131 132 132 135 135 135 141 149 153 157 162 167 170 170 166 167 165 163 172 174 172 165 157 154 154 159 149 142 145 129
100 102 101 104 102 100 100 100 101 105 115 120 126 128 131 131 129 134 137 141 146 151 155 161 168 176 181 178 178 176 176 174 172 177 174 179 179 170 168 159 148 152 159
101 107 104 105 104 102 101 100 99 97 102 106 111 121 124 128 126 125 129 132 138 137 149 161 169 180 190 185 184 188 189 187 188 188 185 189 181 173 169 174 157 130 144
99 105 103 104 104 102 100 100 99 98 98 102 106 108 116 120 119 122 128 128 130 134 143 164 175 177 176 177 177 180 186 195 198 205 204 199 195 191 191 190 177 150 152
96 102 100 101 102 100 98 96 97 97 97 99 105 106 111 115 118 121 124 128 133 139 150 159 173 174 168 167 173 179 185 193 197 202 200 202 202 200 199 197 201 191 178
94 98 95 95 97 100 97 94 92 93 93 94 99 106 110 115 117 117 112 118 130 125 141 161 167 171 170 175 181 188 191 196 197 204 206 195 207 213 212 211 214 215 207
93 94 91 90 92 96 96 94 91 90 89 89 93 100 102 106 114 118 110 118 124 134 137 153 175 180 186 182 191 197 207 214 216 205 194 209 224 230 226 215 221 225 225
83 88 86 87 87 89 88 93 88 84 82 84 89 95 102 104 107 116 132 130 95 121 146 165 180 193 197 191 192 201 206 212 215 217 225 226 239 240 239 230 227 232 231
83 84 84 86 86 86 85 87 84 82 78 78 82 86 92 99 104 116 133 148 43 23 172 175 179 200 202 198 198 204 213 222 225 228 235 236 245 248 250 253 247 234 225
78 78 78 81 84 81 80 77 73 73 71 67 69 75 78 85 86 84 80 103 81 17 234 211 224 239 221 214 218 225 231 235 238 237 239 241 248 252 249 255 254 238 233
72 74 74 76 77 76 76 76 73 70 70 68 66 68 68 70 66 59 66 82 51 3 3 302 244 262 242 234 232 234 239 241 243 245 245 246 245 243 242 243 247 237 236
72 72 71 73 73 75 74 71 68 63 67 79 74 67 62 60 57 58 67 67 23 14 350 290 254 260 250 245 243 244 247 247 244 245 246 246 244 241 241 244 241 240 236
73 69 70 69 67 69 68 66 62 56 54 72 75 62 65 67 57 45 77 44 9 355 338 298 295 272 255 252 251 250 250 251 252 248 246 248 246 243 243 247 247 248 241
63 65 68 67 65 61 60 62 59 53 53 55 52 38 39 55 53 46 37 360 359 353 339 318 304 289 269 260 255 252 253 254 251 247 245 246 246 246 245 246 250 248 243
58 59 58 54 51 46 48 54 54 48 43 42 43 28 13 9 356 345 326 324 322 321 317 313 300 288 284 281 272 260 252 249 250 250 248 248 245 247 248 249 250 248 251
56 55 49 45 44 36 35 45 44 35 31 28 23 21 11 354 349 341 319 318 316 310 309 302 299 294 293 287 279 271 258 252 251 252 253 252 250 251 251 251 251 251 252
44 43 37 32 33 29 28 32 33 25 23 20 18 17 7 351 344 341 321 315 320 314 311 303 297 300 292 284 281 269 259 254 253 254 254 255 257 254 251 252 253 255 258
32 27 22 19 20 21 20 19 15 15 12 11 7 359 353 341 327 336 347 335 328 319 320 319 314 302 293 285 281 272 262 259 255 256 259 258 256 255 252 254 255 258 261
16 12 9 10 8 8 4 358 358 2 4 1 356 349 345 337 333 329 341 342 337 332 327 322 328 315 298 292 290 279 269 264 262 265 264 260 256 255 253 255 257 259 261
2 1 357 356 355 351 346 342 343 347 351 352 347 343 337 339 333 328 344 338 332 330 326 325 325 318 307 299 297 288 273 264 265 268 267 262 259 259 258 260 261 261 261
356 349 342 339 338 337 337 333 332 336 339 342 340 342 338 339 331 324 336 335 330 329 328 328 325 319 310 305 305 298 291 281 276 271 269 268 267 268 265 264 263 262 262
336 335 331 325 323 323 325 323 319 323 329 334 336 338 339 332 328 323 316 320 322 320 320 324 323 319 317 315 310 303 295 287 283 280 276 274 273 271 269 268 267 264 262
325 323 323 318 315 316 316 315 311 315 318 317 318 321 324 317 315 312 305 310 314 315 313 313 312 309 308 305 303 301 299 292 283 283 286 284 282 278 275 273 269 266 265
317 320 324 322 316 311 310 310 307 307 312 311 311 311 312 310 308 304 302 305 304 305 308 307 309 306 303 300 297 297 295 291 286 282 283 283 284 283 279 274 271 269 268
308 311 315 320 320 313 309 310 309 304 304 306 306 305 305 302 303 298 298 298 299 301 302 302 304 304 301 299 298 296 292 288 285 285 284 282 281 280 279 277 276 276 275
300 305 308 312 314 313 312 311 310 306 300 299 298 299 300 297 296 292 290 292 293 295 296 297 299 299 298 295 293 292 289 287 284 284 283 283 281 281 281 279 275 276 276
Height
5892 5891 5891 5890 5890 5889 5889 5888 5888 5888 5888 5888 5888 5888 5888 5888 5889 5889 5890 5890 5890 5891 5892 5892 5893 5893 5894 5895 5895 5896 5896 5897 5897 5897 5898 5898 5898 5898 5898 5898 5899 5899 5899
5893 5892 5892 5892 5891 5891 5890 5890 5889 5889 5889 5889 5889 5889 5889 5889 5889 5890 5890 5890 5891 5891 5892 5892 5893 5893 5894 5894 5895 5896 5896 5897 5897 5897 5898 5898 5898 5898 5898 5899 5899 5899 5899
5894 5893 5893 5893 5892 5892 5891 5891 5891 5890 5890 5890 5890 5890 5890 5890 5890 5890 5891 5891 5891 5892 5892 5892 5892 5893 5893 5894 5895 5895 5896 5896 5897 5897 5897 5898 5898 5898 5899 5899 5899 5899 5899
5895 5894 5894 5894 5894 5893 5893 5892 5892 5892 5891 5891 5891 5890 5890 5890 5890 5891 5891 5891 5892 5892 5892 5892 5892 5893 5893 5894 5895 5895 5896 5896 5897 5897 5897 5897 5898 5898 5899 5899 5899 5899 5899
5896 5895 5895 5895 5895 5895 5894 5894 5893 5893 5892 5892 5892 5891 5891 5891 5891 5891 5891 5892 5892 5891 5891 5892 5892 5892 5893 5894 5895 5895 5896 5896 5896 5897 5897 5897 5898 5898 5898 5899 5899 5899 5899
5897 5897 5896 5896 5896 5896 5895 5895 5894 5894 5893 5893 5892 5892 5892 5891 5891 5892 5892 5891 5891 5892 5892 5892 5892 5892 5893 5894 5895 5895 5896 5896 5896 5896 5897 5897 5897 5897 5898 5898 5899 5899 5899
5898 5898 5897 5897 5897 5897 5896 5896 5895 5895 5894 5894 5893 5893 5893 5892 5892 5892 5892 5892 5892 5892 5891 5891 5892 5892 5893 5894 5894 5895 5895 5896 5896 5896 5897 5897 5897 5897 5897 5898 5898 5898 5899
5899 5899 5899 5899 5899 5898 5897 5897 5896 5896 5895 5895 5894 5894 5893 5893 5893 5893 5892 5892 5892 5892 5891 5892 5892 5892 5893 5894 5894 5895 5895 5895 5896 5896 5896 5897 5897 5897 5897 5897 5897 5897 5898
5901 5901 5901 5900 5900 5899 5898 5898 5897 5897 5896 5895 5895 5894 5894 5894 5893 5893 5892 5892 5892 5891 5891 5891 5892 5892 5892 5893 5893 5894 5895 5895 5895 5896 5896 5896 5896 5896 5896 5896 5896 5897 5897
5903 5903 5902 5902 5901 5900 5899 5899 5898 5897 5897 5896 5895 5895 5894 5894 5893 5893 5892 5892 5892 5891 5891 5891 5891 5892 5892 5892 5893 5894 5894 5894 5895 5895 5895 5896 5896 5896 5896 5896 5896 5896 5896
5905 5904 5904 5903 5902 5901 5900 5899 5899 5898 5897 5896 5896 5895 5894 5894 5893 5893 5892 5892 5892 5892 5891 5891 5891 5891 5891 5892 5892 5893 5893 5893 5894 5894 5894 5895 5895 5895 5895 5895 5895 5895 5895
5906 5906 5905 5904 5903 5902 5901 5900 5899 5898 5897 5897 5896 5895 5894 5894 5893 5893 5892 5892 5892 5891 5891 5891 5890 5891 5891 5891 5891 5891 5892 5892 5892 5892 5893 5893 5894 5894 5894 5894 5894 5894 5895
5908 5907 5906 5905 5904 5903 5902 5901 5900 5899 5898 5897 5896 5895 5895 5894 5893 5893 5892 5892 5892 5891 5891 5890 5890 5890 5890 5890 5890 5890 5890 5890 5890 5890 5891 5892 5892 5893 5893 5893 5893 5893 5893
5909 5908 5907 5906 5905 5904 5903 5902 5901 5899 5898 5897 5896 5896 5895 5894 5893 5893 5892 5892 5891 5891 5890 5890 5889 5888 5888 5888 5888 5888 5888 5888 5888 5889 5890 5890 5891 5891 5891 5891 5892 5892 5892
5910 5909 5908 5907 5906 5905 5904 5903 5901 5900 5899 5898 5897 5896 5895 5894 5893 5892 5892 5891 5891 5890 5889 5889 5888 5887 5887 5886 5886 5886 5886 5886 5887 5887 5888 5888 5889 5889 5890 5890 5890 5890 5890
5911 5910 5909 5908 5907 5905 5904 5903 5902 5900 5899 5898 5897 5896 5895 5894 5893 5892 5891 5890 5890 5889 5888 5887 5887 5886 5885 5885 5884 5884 5884 5885 5885 5885 5885 5886 5886 5887 5887 5888 5888 5888 5888
5912 5911 5910 5908 5907 5906 5904 5903 5902 5901 5900 5899 5897 5896 5895 5894 5893 5891 5890 5890 5889 5888 5887 5886 5885 5884 5883 5883 5882 5882 5882 5882 5883 5883 5883 5884 5884 5885 5885 5885 5886 5886 5886
5913 5912 5910 5909 5908 5906 5905 5903 5902 5901 5900 5899 5897 5896 5894 5893 5892 5891 5890 5889 5888 5887 5886 5885 5884 5882 5882 5881 5881 5880 5880 5880 5880 5881 5881 5881 5882 5882 5882 5883 5883 5883 5883
5913 5912 5910 5909 5908 5906 5905 5904 5902 5901 5900 5898 5896 5895 5894 5892 5891 5890 5889 5888 5887 5886 5885 5884 5882 5881 5880 5879 5879 5878 5878 5878 5878 5878 5878 5879 5879 5879 5879 5879 5880 5880 5880
5913 5912 5911 5909 5908 5906 5905 5904 5902 5901 5899 5898 5896 5895 5893 5891 5890 5889 5889 5888 5886 5885 5884 5883 5881 5880 5879 5878 5877 5876 5876 5876 5876 5876 5876 5876 5876 5876 5876 5876 5876 5877 5877
5913 5912 5910 5909 5907 5906 5904 5903 5902 5900 5899 5897 5895 5893 5891 5891 5890 5889 5888 5886 5885 5884 5883 5882 5880 5879 5878 5877 5876 5875 5874 5874 5874 5873 5873 5873 5873 5873 5873 5873 5873 5873 5873
5912 5911 5909 5908 5906 5905 5904 5902 5901 5899 5898 5896 5895 5893 5892 5891 5889 5888 5887 5886 5884 5883 5882 5881 5879 5878 5877 5876 5875 5874 5873 5873 5872 5871 5871 5871 5870 5869 5869 5869 5869 5869 5869
5912 5910 5908 5907 5905 5904 5902 5901 5899 5898 5896 5895 5894 5892 5891 5890 5888 5887 5886 5884 5883 5882 5880 5879 5878 5877 5875 5874 5873 5872 5872 5871 5870 5869 5868 5868 5867 5867 5866 5865 5865 5865 5865
5910 5909 5907 5905 5904 5902 5901 5899 5897 5896 5895 5893 5892 5890 5889 5888 5886 5885 5884 5882 5881 5880 5878 5877 5875 5874 5873 5872 5871 5870 5869 5868 5868 5867 5866 5865 5864 5863 5863 5862 5861 5861 5861
5909 5907 5906 5904 5902 5901 5899 5897 5896 5894 5893 5891 5890 5888 5887 5885 5884 5883 5881 5880 5879 5877 5876 5875 5873 5872 5871 5869 5868 5867 5866 5864 5864 5863 5862 5862 5861 5860 5859 5858 5857 5857 5856
5907 5906 5904 5902 5901 5899 5897 5895 5894 5892 5890 5889 5888 5886 5885 5883 5882 5880 5879 5877 5876 5874 5873 5872 5870 5869 5868 5866 5865 5864 5862 5861 5860 5859 5858 5857 5857 5856 5855 5854 5853 5852 5852